Year,Month,Day,Hour,Minute,Value (Times are PST for temperature in C)
2007,04,10,00,00,6.30
2007,04,10,00,01,6.30
2007,04,10,00,02,6.30
2007,04,10,00,03,6.20
2007,04,10,00,04,6.20
2007,04,10,00,05,6.10
2007,04,10,00,06,6.00
2007,04,10,00,07,5.90
2007,04,10,00,08,5.90
2007,04,10,00,09,5.80
2007,04,10,00,10,5.80
2007,04,10,00,11,5.80
2007,04,10,00,12,5.70
2007,04,10,00,13,5.70
2007,04,10,00,14,5.70
2007,04,10,00,15,5.70
2007,04,10,00,16,5.70
2007,04,10,00,17,5.80
2007,04,10,00,18,5.80
2007,04,10,00,19,5.80
2007,04,10,00,20,5.80
2007,04,10,00,21,5.80
2007,04,10,00,22,5.80
2007,04,10,00,23,5.80
2007,04,10,00,24,5.80
2007,04,10,00,25,5.80
2007,04,10,00,26,5.90
2007,04,10,00,27,5.90
2007,04,10,00,28,5.90
2007,04,10,00,29,6.00
2007,04,10,00,30,6.10
2007,04,10,00,31,6.10
2007,04,10,00,32,6.20
2007,04,10,00,33,6.20
2007,04,10,00,34,6.20
2007,04,10,00,35,6.20
2007,04,10,00,36,6.20
2007,04,10,00,37,6.30
2007,04,10,00,38,6.30
2007,04,10,00,39,6.20
2007,04,10,00,40,6.20
2007,04,10,00,41,6.20
2007,04,10,00,42,6.10
2007,04,10,00,43,6.00
2007,04,10,00,44,5.90
2007,04,10,00,45,5.90
2007,04,10,00,46,5.90
2007,04,10,00,47,5.80
2007,04,10,00,48,5.80
2007,04,10,00,49,5.80
2007,04,10,00,50,5.80
2007,04,10,00,51,5.80
2007,04,10,00,52,5.80
2007,04,10,00,53,5.80
2007,04,10,00,54,5.80
2007,04,10,00,55,5.80
2007,04,10,00,56,5.90
2007,04,10,00,57,5.80
2007,04,10,00,58,5.80
2007,04,10,00,59,5.80
2007,04,10,01,00,5.80
2007,04,10,01,01,5.80
2007,04,10,01,02,5.70
2007,04,10,01,03,5.70
2007,04,10,01,04,5.70
2007,04,10,01,05,5.70
2007,04,10,01,06,5.60
2007,04,10,01,07,5.60
2007,04,10,01,08,5.50
2007,04,10,01,09,5.50
2007,04,10,01,10,5.40
2007,04,10,01,11,5.40
2007,04,10,01,12,5.40
2007,04,10,01,13,5.40
2007,04,10,01,14,5.30
2007,04,10,01,15,5.30
2007,04,10,01,16,5.30
2007,04,10,01,17,5.40
2007,04,10,01,18,5.40
2007,04,10,01,19,5.50
2007,04,10,01,20,5.50
2007,04,10,01,21,5.50
2007,04,10,01,22,5.60
2007,04,10,01,23,5.60
2007,04,10,01,24,5.60
2007,04,10,01,25,5.60
2007,04,10,01,26,5.60
2007,04,10,01,27,5.60
2007,04,10,01,28,5.60
2007,04,10,01,29,5.60
2007,04,10,01,30,5.60
2007,04,10,01,31,5.60
2007,04,10,01,32,5.70
2007,04,10,01,33,5.80
2007,04,10,01,34,5.80
2007,04,10,01,35,5.80
2007,04,10,01,36,5.80
2007,04,10,01,37,5.70
2007,04,10,01,38,5.70
2007,04,10,01,39,5.70
2007,04,10,01,40,5.70
2007,04,10,01,41,5.60
2007,04,10,01,42,5.60
2007,04,10,01,43,5.60
2007,04,10,01,44,5.50
2007,04,10,01,45,5.40
2007,04,10,01,46,5.40
2007,04,10,01,47,5.40
2007,04,10,01,48,5.30
2007,04,10,01,49,5.30
2007,04,10,01,50,5.30
2007,04,10,01,51,5.20
2007,04,10,01,52,5.20
2007,04,10,01,53,5.10
2007,04,10,01,54,5.10
2007,04,10,01,55,5.10
2007,04,10,01,56,5.10
2007,04,10,01,57,5.10
2007,04,10,01,58,5.10
2007,04,10,01,59,5.10
2007,04,10,02,00,5.20
2007,04,10,02,01,5.20
2007,04,10,02,02,5.20
2007,04,10,02,03,5.30
2007,04,10,02,04,5.20
2007,04,10,02,05,5.20
2007,04,10,02,06,5.20
2007,04,10,02,07,5.20
2007,04,10,02,08,5.20
2007,04,10,02,09,5.10
2007,04,10,02,10,5.10
2007,04,10,02,11,5.10
2007,04,10,02,12,5.00
2007,04,10,02,13,4.90
2007,04,10,02,14,4.90
2007,04,10,02,15,4.80
2007,04,10,02,16,4.80
2007,04,10,02,17,4.80
2007,04,10,02,18,4.70
2007,04,10,02,19,4.70
2007,04,10,02,20,4.60
2007,04,10,02,21,4.60
2007,04,10,02,22,4.50
2007,04,10,02,23,4.50
2007,04,10,02,24,4.50
2007,04,10,02,25,4.50
2007,04,10,02,26,4.50
2007,04,10,02,27,4.40
2007,04,10,02,28,4.40
2007,04,10,02,29,4.40
2007,04,10,02,30,4.40
2007,04,10,02,31,4.40
2007,04,10,02,32,4.30
2007,04,10,02,33,4.30
2007,04,10,02,34,4.30
2007,04,10,02,35,4.30
2007,04,10,02,36,4.30
2007,04,10,02,37,4.30
2007,04,10,02,38,4.30
2007,04,10,02,39,4.40
2007,04,10,02,40,4.40
2007,04,10,02,41,4.40
2007,04,10,02,42,4.50
2007,04,10,02,43,4.50
2007,04,10,02,44,4.50
2007,04,10,02,45,4.50
2007,04,10,02,46,4.50
2007,04,10,02,47,4.50
2007,04,10,02,48,4.50
2007,04,10,02,49,4.40
2007,04,10,02,50,4.40
2007,04,10,02,51,4.40
2007,04,10,02,52,4.40
2007,04,10,02,53,4.40
2007,04,10,02,54,4.40
2007,04,10,02,55,4.40
2007,04,10,02,56,4.40
2007,04,10,02,57,4.40
2007,04,10,02,58,4.40
2007,04,10,02,59,4.40
2007,04,10,03,00,4.40
2007,04,10,03,01,4.30
2007,04,10,03,02,4.30
2007,04,10,03,03,4.20
2007,04,10,03,04,4.20
2007,04,10,03,05,4.10
2007,04,10,03,06,4.00
2007,04,10,03,07,3.90
2007,04,10,03,08,3.80
2007,04,10,03,09,3.80
2007,04,10,03,10,3.80
2007,04,10,03,11,3.80
2007,04,10,03,12,3.80
2007,04,10,03,13,3.80
2007,04,10,03,14,3.80
2007,04,10,03,15,3.80
2007,04,10,03,16,3.90
2007,04,10,03,17,4.00
2007,04,10,03,18,4.10
2007,04,10,03,19,4.10
2007,04,10,03,20,4.20
2007,04,10,03,21,4.20
2007,04,10,03,22,4.20
2007,04,10,03,23,4.20
2007,04,10,03,24,4.20
2007,04,10,03,25,4.20
2007,04,10,03,26,4.20
2007,04,10,03,27,4.20
2007,04,10,03,28,4.20
2007,04,10,03,29,4.20
2007,04,10,03,30,4.10
2007,04,10,03,31,4.10
2007,04,10,03,32,4.10
2007,04,10,03,33,4.10
2007,04,10,03,34,4.10
2007,04,10,03,35,4.10
2007,04,10,03,36,4.20
2007,04,10,03,37,4.20
2007,04,10,03,38,4.20
2007,04,10,03,39,4.20
2007,04,10,03,40,4.20
2007,04,10,03,41,4.10
2007,04,10,03,42,4.10
2007,04,10,03,43,4.10
2007,04,10,03,44,4.10
2007,04,10,03,45,4.20
2007,04,10,03,46,4.20
2007,04,10,03,47,4.20
2007,04,10,03,48,4.20
2007,04,10,03,49,4.10
2007,04,10,03,50,4.10
2007,04,10,03,51,4.10
2007,04,10,03,52,4.00
2007,04,10,03,53,4.00
2007,04,10,03,54,4.00
2007,04,10,03,55,3.90
2007,04,10,03,56,3.90
2007,04,10,03,57,3.90
2007,04,10,03,58,4.00
2007,04,10,03,59,4.00
2007,04,10,04,00,4.00
2007,04,10,04,01,4.00
2007,04,10,04,02,4.00
2007,04,10,04,03,4.00
2007,04,10,04,04,3.90
2007,04,10,04,05,3.90
2007,04,10,04,06,3.90
2007,04,10,04,07,3.90
2007,04,10,04,08,3.90
2007,04,10,04,09,3.90
2007,04,10,04,10,3.90
2007,04,10,04,11,3.90
2007,04,10,04,12,3.90
2007,04,10,04,13,3.90
2007,04,10,04,14,3.90
2007,04,10,04,15,3.90
2007,04,10,04,16,3.90
2007,04,10,04,17,3.90
2007,04,10,04,18,4.00
2007,04,10,04,19,4.00
2007,04,10,04,20,4.10
2007,04,10,04,21,4.10
2007,04,10,04,22,4.10
2007,04,10,04,23,4.10
2007,04,10,04,24,4.20
2007,04,10,04,25,4.20
2007,04,10,04,26,4.20
2007,04,10,04,27,4.10
2007,04,10,04,28,4.10
2007,04,10,04,29,4.10
2007,04,10,04,30,4.10
2007,04,10,04,31,4.10
2007,04,10,04,32,4.00
2007,04,10,04,33,3.90
2007,04,10,04,34,3.90
2007,04,10,04,35,3.80
2007,04,10,04,36,3.80
2007,04,10,04,37,3.80
2007,04,10,04,38,3.80
2007,04,10,04,39,3.80
2007,04,10,04,40,3.80
2007,04,10,04,41,3.80
2007,04,10,04,42,3.80
2007,04,10,04,43,3.70
2007,04,10,04,44,3.70
2007,04,10,04,45,3.70
2007,04,10,04,46,3.70
2007,04,10,04,47,3.60
2007,04,10,04,48,3.60
2007,04,10,04,49,3.60
2007,04,10,04,50,3.50
2007,04,10,04,51,3.50
2007,04,10,04,52,3.40
2007,04,10,04,53,3.20
2007,04,10,04,54,3.10
2007,04,10,04,55,3.00
2007,04,10,04,56,2.90
2007,04,10,04,57,2.80
2007,04,10,04,58,2.80
2007,04,10,04,59,2.70
2007,04,10,05,00,2.60
2007,04,10,05,01,2.60
2007,04,10,05,02,2.60
2007,04,10,05,03,2.60
2007,04,10,05,04,2.50
2007,04,10,05,05,2.50
2007,04,10,05,06,2.40
2007,04,10,05,07,2.40
2007,04,10,05,08,2.40
2007,04,10,05,09,2.40
2007,04,10,05,10,2.40
2007,04,10,05,11,2.40
2007,04,10,05,12,2.40
2007,04,10,05,13,2.30
2007,04,10,05,14,2.30
2007,04,10,05,15,2.30
2007,04,10,05,16,2.20
2007,04,10,05,17,2.20
2007,04,10,05,18,2.10
2007,04,10,05,19,2.00
2007,04,10,05,20,2.00
2007,04,10,05,21,1.90
2007,04,10,05,22,1.90
2007,04,10,05,23,1.90
2007,04,10,05,24,1.90
2007,04,10,05,25,1.90
2007,04,10,05,26,1.80
2007,04,10,05,27,1.80
2007,04,10,05,28,1.80
2007,04,10,05,29,1.80
2007,04,10,05,30,1.80
2007,04,10,05,31,1.80
2007,04,10,05,32,1.80
2007,04,10,05,33,1.80
2007,04,10,05,34,1.80
2007,04,10,05,35,1.80
2007,04,10,05,36,1.70
2007,04,10,05,37,1.70
2007,04,10,05,38,1.70
2007,04,10,05,39,1.70
2007,04,10,05,40,1.70
2007,04,10,05,41,1.70
2007,04,10,05,42,1.70
2007,04,10,05,43,1.70
2007,04,10,05,44,1.70
2007,04,10,05,45,1.80
2007,04,10,05,46,1.80
2007,04,10,05,47,1.80
2007,04,10,05,48,1.80
2007,04,10,05,49,1.90
2007,04,10,05,50,1.90
2007,04,10,05,51,1.90
2007,04,10,05,52,1.90
2007,04,10,05,53,1.90
2007,04,10,05,54,1.90
2007,04,10,05,55,1.90
2007,04,10,05,56,1.90
2007,04,10,05,57,1.90
2007,04,10,05,58,2.00
2007,04,10,05,59,2.00
2007,04,10,06,00,1.90
2007,04,10,06,01,1.90
2007,04,10,06,02,1.80
2007,04,10,06,03,1.80
2007,04,10,06,04,1.80
2007,04,10,06,05,1.80
2007,04,10,06,06,1.70
2007,04,10,06,07,1.70
2007,04,10,06,08,1.70
2007,04,10,06,09,1.60
2007,04,10,06,10,1.60
2007,04,10,06,11,1.50
2007,04,10,06,12,1.50
2007,04,10,06,13,1.40
2007,04,10,06,14,1.40
2007,04,10,06,15,1.30
2007,04,10,06,16,1.30
2007,04,10,06,17,1.30
2007,04,10,06,18,1.30
2007,04,10,06,19,1.30
2007,04,10,06,20,1.20
2007,04,10,06,21,1.20
2007,04,10,06,22,1.20
2007,04,10,06,23,1.20
2007,04,10,06,24,1.20
2007,04,10,06,25,1.30
2007,04,10,06,26,1.30
2007,04,10,06,27,1.30
2007,04,10,06,28,1.30
2007,04,10,06,29,1.30
2007,04,10,06,30,1.30
2007,04,10,06,31,1.30
2007,04,10,06,32,1.30
2007,04,10,06,33,1.30
2007,04,10,06,34,1.30
2007,04,10,06,35,1.30
2007,04,10,06,36,1.30
2007,04,10,06,37,1.30
2007,04,10,06,38,1.30
2007,04,10,06,39,1.30
2007,04,10,06,40,1.30
2007,04,10,06,41,1.30
2007,04,10,06,42,1.40
2007,04,10,06,43,1.40
2007,04,10,06,44,1.40
2007,04,10,06,45,1.40
2007,04,10,06,46,1.40
2007,04,10,06,47,1.30
2007,04,10,06,48,1.30
2007,04,10,06,49,1.30
2007,04,10,06,50,1.30
2007,04,10,06,51,1.30
2007,04,10,06,52,1.30
2007,04,10,06,53,1.30
2007,04,10,06,54,1.30
2007,04,10,06,55,1.30
2007,04,10,06,56,1.30
2007,04,10,06,57,1.30
2007,04,10,06,58,1.30
2007,04,10,06,59,1.30
2007,04,10,07,00,1.30
2007,04,10,07,01,1.30
2007,04,10,07,02,1.30
2007,04,10,07,03,1.40
2007,04,10,07,04,1.50
2007,04,10,07,05,1.60
2007,04,10,07,06,1.60
2007,04,10,07,07,1.60
2007,04,10,07,08,1.70
2007,04,10,07,09,1.70
2007,04,10,07,10,1.70
2007,04,10,07,11,1.80
2007,04,10,07,12,1.80
2007,04,10,07,13,1.80
2007,04,10,07,14,1.90
2007,04,10,07,15,1.90
2007,04,10,07,16,2.00
2007,04,10,07,17,2.10
2007,04,10,07,18,2.10
2007,04,10,07,19,2.20
2007,04,10,07,20,2.30
2007,04,10,07,21,2.40
2007,04,10,07,22,2.40
2007,04,10,07,23,2.40
2007,04,10,07,24,2.50
2007,04,10,07,25,2.60
2007,04,10,07,26,2.60
2007,04,10,07,27,2.70
2007,04,10,07,28,2.70
2007,04,10,07,29,2.70
2007,04,10,07,30,2.80
2007,04,10,07,31,2.90
2007,04,10,07,32,3.00
2007,04,10,07,33,3.00
2007,04,10,07,34,3.00
2007,04,10,07,35,3.00
2007,04,10,07,36,2.90
2007,04,10,07,37,3.00
2007,04,10,07,38,3.00
2007,04,10,07,39,3.00
2007,04,10,07,40,3.00
2007,04,10,07,41,3.00
2007,04,10,07,42,3.10
2007,04,10,07,43,3.20
2007,04,10,07,44,3.20
2007,04,10,07,45,3.30
2007,04,10,07,46,3.40
2007,04,10,07,47,3.50
2007,04,10,07,48,3.60
2007,04,10,07,49,3.70
2007,04,10,07,50,3.80
2007,04,10,07,51,3.90
2007,04,10,07,52,3.90
2007,04,10,07,53,4.00
2007,04,10,07,54,4.10
2007,04,10,07,55,4.20
2007,04,10,07,56,4.30
2007,04,10,07,57,4.40
2007,04,10,07,58,4.50
2007,04,10,07,59,4.60
2007,04,10,08,00,4.70
2007,04,10,08,01,4.80
2007,04,10,08,02,5.00
2007,04,10,08,03,5.10
2007,04,10,08,04,5.30
2007,04,10,08,05,5.50
2007,04,10,08,06,5.70
2007,04,10,08,07,5.80
2007,04,10,08,08,6.00
2007,04,10,08,09,6.10
2007,04,10,08,10,6.20
2007,04,10,08,11,6.40
2007,04,10,08,12,6.50
2007,04,10,08,13,6.70
2007,04,10,08,14,6.80
2007,04,10,08,15,7.00
2007,04,10,08,16,7.10
2007,04,10,08,17,7.20
2007,04,10,08,18,7.30
2007,04,10,08,19,7.50
2007,04,10,08,20,7.60
2007,04,10,08,21,7.70
2007,04,10,08,22,7.80
2007,04,10,08,23,7.90
2007,04,10,08,24,7.90
2007,04,10,08,25,7.90
2007,04,10,08,26,7.90
2007,04,10,08,27,7.90
2007,04,10,08,28,7.90
2007,04,10,08,29,7.90
2007,04,10,08,30,7.80
2007,04,10,08,31,7.80
2007,04,10,08,32,7.90
2007,04,10,08,33,7.90
2007,04,10,08,34,7.90
2007,04,10,08,35,7.90
2007,04,10,08,36,7.90
2007,04,10,08,37,7.90
2007,04,10,08,38,7.90
2007,04,10,08,39,7.80
2007,04,10,08,40,7.80
2007,04,10,08,41,7.80
2007,04,10,08,42,8.00
2007,04,10,08,43,8.10
2007,04,10,08,44,8.20
2007,04,10,08,45,8.30
2007,04,10,08,46,8.50
2007,04,10,08,47,8.60
2007,04,10,08,48,8.60
2007,04,10,08,49,8.50
2007,04,10,08,50,8.40
2007,04,10,08,51,8.40
2007,04,10,08,52,8.50
2007,04,10,08,53,8.50
2007,04,10,08,54,8.60
2007,04,10,08,55,8.50
2007,04,10,08,56,8.50
2007,04,10,08,57,8.50
2007,04,10,08,58,8.50
2007,04,10,08,59,8.60
2007,04,10,09,00,8.60
2007,04,10,09,01,8.70
2007,04,10,09,02,8.70
2007,04,10,09,03,8.70
2007,04,10,09,04,8.70
2007,04,10,09,05,8.70
2007,04,10,09,06,8.80
2007,04,10,09,07,8.90
2007,04,10,09,08,8.90
2007,04,10,09,09,8.90
2007,04,10,09,10,8.80
2007,04,10,09,11,8.80
2007,04,10,09,12,8.80
2007,04,10,09,13,8.80
2007,04,10,09,14,8.90
2007,04,10,09,15,8.90
2007,04,10,09,16,9.00
2007,04,10,09,17,9.00
2007,04,10,09,18,9.10
2007,04,10,09,19,9.10
2007,04,10,09,20,9.10
2007,04,10,09,21,9.00
2007,04,10,09,22,8.90
2007,04,10,09,23,8.90
2007,04,10,09,24,8.90
2007,04,10,09,25,9.00
2007,04,10,09,26,9.00
2007,04,10,09,27,9.10
2007,04,10,09,28,9.10
2007,04,10,09,29,9.10
2007,04,10,09,30,9.00
2007,04,10,09,31,9.00
2007,04,10,09,32,9.00
2007,04,10,09,33,8.90
2007,04,10,09,34,8.90
2007,04,10,09,35,8.90
2007,04,10,09,36,8.80
2007,04,10,09,37,8.80
2007,04,10,09,38,8.80
2007,04,10,09,39,8.80
2007,04,10,09,40,8.90
2007,04,10,09,41,8.90
2007,04,10,09,42,8.80
2007,04,10,09,43,8.70
2007,04,10,09,44,8.60
2007,04,10,09,45,8.50
2007,04,10,09,46,8.40
2007,04,10,09,47,8.50
2007,04,10,09,48,8.60
2007,04,10,09,49,8.70
2007,04,10,09,50,8.80
2007,04,10,09,51,8.90
2007,04,10,09,52,9.10
2007,04,10,09,53,9.20
2007,04,10,09,54,9.30
2007,04,10,09,55,9.30
2007,04,10,09,56,9.30
2007,04,10,09,57,9.30
2007,04,10,09,58,9.20
2007,04,10,09,59,9.30
2007,04,10,10,00,9.30
2007,04,10,10,01,9.30
2007,04,10,10,02,9.40
2007,04,10,10,03,9.50
2007,04,10,10,04,9.50
2007,04,10,10,05,9.50
2007,04,10,10,06,9.50
2007,04,10,10,07,9.60
2007,04,10,10,08,9.60
2007,04,10,10,09,9.70
2007,04,10,10,10,9.80
2007,04,10,10,11,9.80
2007,04,10,10,12,9.90
2007,04,10,10,13,9.90
2007,04,10,10,14,9.90
2007,04,10,10,15,10.00
2007,04,10,10,16,10.00
2007,04,10,10,17,9.90
2007,04,10,10,18,9.90
2007,04,10,10,19,9.80
2007,04,10,10,20,9.60
2007,04,10,10,21,9.50
2007,04,10,10,22,9.40
2007,04,10,10,23,9.30
2007,04,10,10,24,9.30
2007,04,10,10,25,9.30
2007,04,10,10,26,9.20
2007,04,10,10,27,9.20
2007,04,10,10,28,9.10
2007,04,10,10,29,9.00
2007,04,10,10,30,9.10
2007,04,10,10,31,9.10
2007,04,10,10,32,9.10
2007,04,10,10,33,9.10
2007,04,10,10,34,9.00
2007,04,10,10,35,9.00
2007,04,10,10,36,9.10
2007,04,10,10,37,9.00
2007,04,10,10,38,9.00
2007,04,10,10,39,8.90
2007,04,10,10,40,8.90
2007,04,10,10,41,9.00
2007,04,10,10,42,9.00
2007,04,10,10,43,9.10
2007,04,10,10,44,9.10
2007,04,10,10,45,9.20
2007,04,10,10,46,9.20
2007,04,10,10,47,9.30
2007,04,10,10,48,9.30
2007,04,10,10,49,9.40
2007,04,10,10,50,9.50
2007,04,10,10,51,9.60
2007,04,10,10,52,9.50
2007,04,10,10,53,9.40
2007,04,10,10,54,9.40
2007,04,10,10,55,9.40
2007,04,10,10,56,9.50
2007,04,10,10,57,9.50
2007,04,10,10,58,9.50
2007,04,10,10,59,9.50
2007,04,10,11,00,9.40
2007,04,10,11,01,9.30
2007,04,10,11,02,9.30
2007,04,10,11,03,9.50
2007,04,10,11,04,9.60
2007,04,10,11,05,9.60
2007,04,10,11,06,9.60
2007,04,10,11,07,9.50
2007,04,10,11,08,9.40
2007,04,10,11,09,9.40
2007,04,10,11,10,9.50
2007,04,10,11,11,9.50
2007,04,10,11,12,9.40
2007,04,10,11,13,9.40
2007,04,10,11,14,9.60
2007,04,10,11,15,9.70
2007,04,10,11,16,9.80
2007,04,10,11,17,10.00
2007,04,10,11,18,10.00
2007,04,10,11,19,9.90
2007,04,10,11,20,9.80
2007,04,10,11,21,9.80
2007,04,10,11,22,9.70
2007,04,10,11,23,9.70
2007,04,10,11,24,9.70
2007,04,10,11,25,9.70
2007,04,10,11,26,9.70
2007,04,10,11,27,9.60
2007,04,10,11,28,9.50
2007,04,10,11,29,9.50
2007,04,10,11,30,9.40
2007,04,10,11,31,9.40
2007,04,10,11,32,9.40
2007,04,10,11,33,9.40
2007,04,10,11,34,9.30
2007,04,10,11,35,9.20
2007,04,10,11,36,9.10
2007,04,10,11,37,9.00
2007,04,10,11,38,8.90
2007,04,10,11,39,8.90
2007,04,10,11,40,8.90
2007,04,10,11,41,8.90
2007,04,10,11,42,9.00
2007,04,10,11,43,9.20
2007,04,10,11,44,9.30
2007,04,10,11,45,9.30
2007,04,10,11,46,9.40
2007,04,10,11,47,9.50
2007,04,10,11,48,9.60
2007,04,10,11,49,9.70
2007,04,10,11,50,9.80
2007,04,10,11,51,10.00
2007,04,10,11,52,10.10
2007,04,10,11,53,10.10
2007,04,10,11,54,10.10
2007,04,10,11,55,10.20
2007,04,10,11,56,10.10
2007,04,10,11,57,9.90
2007,04,10,11,58,9.80
2007,04,10,11,59,9.80
2007,04,10,12,00,9.90
2007,04,10,12,01,9.80
2007,04,10,12,02,9.80
2007,04,10,12,03,9.80
2007,04,10,12,04,9.80
2007,04,10,12,05,9.90
2007,04,10,12,06,9.80
2007,04,10,12,07,9.90
2007,04,10,12,08,9.90
2007,04,10,12,09,9.80
2007,04,10,12,10,9.60
2007,04,10,12,11,9.50
2007,04,10,12,12,9.30
2007,04,10,12,13,9.10
2007,04,10,12,14,9.00
2007,04,10,12,15,8.90
2007,04,10,12,16,8.80
2007,04,10,12,17,8.70
2007,04,10,12,18,8.60
2007,04,10,12,19,8.60
2007,04,10,12,20,8.50
2007,04,10,12,21,8.50
2007,04,10,12,22,8.40
2007,04,10,12,23,8.40
2007,04,10,12,24,8.40
2007,04,10,12,25,8.30
2007,04,10,12,26,8.30
2007,04,10,12,27,8.30
2007,04,10,12,28,8.30
2007,04,10,12,29,8.20
2007,04,10,12,30,8.20
2007,04,10,12,31,8.20
2007,04,10,12,32,8.20
2007,04,10,12,33,8.20
2007,04,10,12,34,8.20
2007,04,10,12,35,8.20
2007,04,10,12,36,8.30
2007,04,10,12,37,8.30
2007,04,10,12,38,8.30
2007,04,10,12,39,8.30
2007,04,10,12,40,8.30
2007,04,10,12,41,8.30
2007,04,10,12,42,8.40
2007,04,10,12,43,8.50
2007,04,10,12,44,8.60
2007,04,10,12,45,8.60
2007,04,10,12,46,8.70
2007,04,10,12,47,8.80
2007,04,10,12,48,8.80
2007,04,10,12,49,8.90
2007,04,10,12,50,8.90
2007,04,10,12,51,8.90
2007,04,10,12,52,8.90
2007,04,10,12,53,8.90
2007,04,10,12,54,8.80
2007,04,10,12,55,8.80
2007,04,10,12,56,8.80
2007,04,10,12,57,8.80
2007,04,10,12,58,8.80
2007,04,10,12,59,8.70
2007,04,10,13,00,8.70
2007,04,10,13,01,8.80
2007,04,10,13,02,8.70
2007,04,10,13,03,8.70
2007,04,10,13,04,8.70
2007,04,10,13,05,8.70
2007,04,10,13,06,8.70
2007,04,10,13,07,8.80
2007,04,10,13,08,8.90
2007,04,10,13,09,9.00
2007,04,10,13,10,9.10
2007,04,10,13,11,9.20
2007,04,10,13,12,9.30
2007,04,10,13,13,9.50
2007,04,10,13,14,9.60
2007,04,10,13,15,9.70
2007,04,10,13,16,9.60
2007,04,10,13,17,9.60
2007,04,10,13,18,9.60
2007,04,10,13,19,9.60
2007,04,10,13,20,9.60
2007,04,10,13,21,9.60
2007,04,10,13,22,9.70
2007,04,10,13,23,9.70
2007,04,10,13,24,9.70
2007,04,10,13,25,9.80
2007,04,10,13,26,9.80
2007,04,10,13,27,9.70
2007,04,10,13,28,9.70
2007,04,10,13,29,9.70
2007,04,10,13,30,9.70
2007,04,10,13,31,9.70
2007,04,10,13,32,9.70
2007,04,10,13,33,9.70
2007,04,10,13,34,9.70
2007,04,10,13,35,9.70
2007,04,10,13,36,9.60
2007,04,10,13,37,9.50
2007,04,10,13,38,9.50
2007,04,10,13,39,9.50
2007,04,10,13,40,9.50
2007,04,10,13,41,9.50
2007,04,10,13,42,9.50
2007,04,10,13,43,9.50
2007,04,10,13,44,9.50
2007,04,10,13,45,9.50
2007,04,10,13,46,9.50
2007,04,10,13,47,9.40
2007,04,10,13,48,9.40
2007,04,10,13,49,9.40
2007,04,10,13,50,9.30
2007,04,10,13,51,9.30
2007,04,10,13,52,9.30
2007,04,10,13,53,9.30
2007,04,10,13,54,9.30
2007,04,10,13,55,9.30
2007,04,10,13,56,9.30
2007,04,10,13,57,9.20
2007,04,10,13,58,9.20
2007,04,10,13,59,9.10
2007,04,10,14,00,9.00
2007,04,10,14,01,8.90
2007,04,10,14,02,8.80
2007,04,10,14,03,8.70
2007,04,10,14,04,8.70
2007,04,10,14,05,8.70
2007,04,10,14,06,8.70
2007,04,10,14,07,8.70
2007,04,10,14,08,8.70
2007,04,10,14,09,8.70
2007,04,10,14,10,8.70
2007,04,10,14,11,8.70
2007,04,10,14,12,8.70
2007,04,10,14,13,8.70
2007,04,10,14,14,8.70
2007,04,10,14,15,8.70
2007,04,10,14,16,8.80
2007,04,10,14,17,8.80
2007,04,10,14,18,8.90
2007,04,10,14,19,9.00
2007,04,10,14,20,9.10
2007,04,10,14,21,9.10
2007,04,10,14,22,9.20
2007,04,10,14,23,9.20
2007,04,10,14,24,9.30
2007,04,10,14,25,9.30
2007,04,10,14,26,9.20
2007,04,10,14,27,9.20
2007,04,10,14,28,9.20
2007,04,10,14,29,9.20
2007,04,10,14,30,9.20
2007,04,10,14,31,9.30
2007,04,10,14,32,9.30
2007,04,10,14,33,9.30
2007,04,10,14,34,9.30
2007,04,10,14,35,9.30
2007,04,10,14,36,9.20
2007,04,10,14,37,9.20
2007,04,10,14,38,9.20
2007,04,10,14,39,9.10
2007,04,10,14,40,9.10
2007,04,10,14,41,9.10
2007,04,10,14,42,9.00
2007,04,10,14,43,9.00
2007,04,10,14,44,8.90
2007,04,10,14,45,8.80
2007,04,10,14,46,8.80
2007,04,10,14,47,8.80
2007,04,10,14,48,8.80
2007,04,10,14,49,8.90
2007,04,10,14,50,9.00
2007,04,10,14,51,9.00
2007,04,10,14,52,9.10
2007,04,10,14,53,9.20
2007,04,10,14,54,9.20
2007,04,10,14,55,9.20
2007,04,10,14,56,9.30
2007,04,10,14,57,9.30
2007,04,10,14,58,9.30
2007,04,10,14,59,9.40
2007,04,10,15,00,9.30
2007,04,10,15,01,9.30
2007,04,10,15,02,9.20
2007,04,10,15,03,9.20
2007,04,10,15,04,9.10
2007,04,10,15,05,9.10
2007,04,10,15,06,9.00
2007,04,10,15,07,9.00
2007,04,10,15,08,8.90
2007,04,10,15,09,8.90
2007,04,10,15,10,8.80
2007,04,10,15,11,8.80
2007,04,10,15,12,8.80
2007,04,10,15,13,8.80
2007,04,10,15,14,8.80
2007,04,10,15,15,8.80
2007,04,10,15,16,8.80
2007,04,10,15,17,8.80
2007,04,10,15,18,8.90
2007,04,10,15,19,8.90
2007,04,10,15,20,8.90
2007,04,10,15,21,9.00
2007,04,10,15,22,9.00
2007,04,10,15,23,9.10
2007,04,10,15,24,9.20
2007,04,10,15,25,9.20
2007,04,10,15,26,9.30
2007,04,10,15,27,9.30
2007,04,10,15,28,9.30
2007,04,10,15,29,9.30
2007,04,10,15,30,9.30
2007,04,10,15,31,9.30
2007,04,10,15,32,9.30
2007,04,10,15,33,9.30
2007,04,10,15,34,9.30
2007,04,10,15,35,9.30
2007,04,10,15,36,9.30
2007,04,10,15,37,9.30
2007,04,10,15,38,9.30
2007,04,10,15,39,9.20
2007,04,10,15,40,9.20
2007,04,10,15,41,9.10
2007,04,10,15,42,9.10
2007,04,10,15,43,9.00
2007,04,10,15,44,9.00
2007,04,10,15,45,8.90
2007,04,10,15,46,8.90
2007,04,10,15,47,8.90
2007,04,10,15,48,8.90
2007,04,10,15,49,8.80
2007,04,10,15,50,8.80
2007,04,10,15,51,8.80
2007,04,10,15,52,8.80
2007,04,10,15,53,8.80
2007,04,10,15,54,8.90
2007,04,10,15,55,8.80
2007,04,10,15,56,8.80
2007,04,10,15,57,8.80
2007,04,10,15,58,8.80
2007,04,10,15,59,8.80
2007,04,10,16,00,8.70
2007,04,10,16,01,8.70
2007,04,10,16,02,8.70
2007,04,10,16,03,8.60
2007,04,10,16,04,8.60
2007,04,10,16,05,8.60
2007,04,10,16,06,8.50
2007,04,10,16,07,8.50
2007,04,10,16,08,8.50
2007,04,10,16,09,8.50
2007,04,10,16,10,8.40
2007,04,10,16,11,8.40
2007,04,10,16,12,8.40
2007,04,10,16,13,8.40
2007,04,10,16,14,8.40
2007,04,10,16,15,8.30
2007,04,10,16,16,8.30
2007,04,10,16,17,8.30
2007,04,10,16,18,8.20
2007,04,10,16,19,8.20
2007,04,10,16,20,8.10
2007,04,10,16,21,8.10
2007,04,10,16,22,8.00
2007,04,10,16,23,8.10
2007,04,10,16,24,8.10
2007,04,10,16,25,8.10
2007,04,10,16,26,8.10
2007,04,10,16,27,8.10
2007,04,10,16,28,8.10
2007,04,10,16,29,8.10
2007,04,10,16,30,8.00
2007,04,10,16,31,8.00
2007,04,10,16,32,8.00
2007,04,10,16,33,8.00
2007,04,10,16,34,8.00
2007,04,10,16,35,8.00
2007,04,10,16,36,8.00
2007,04,10,16,37,8.10
2007,04,10,16,38,8.10
2007,04,10,16,39,8.20
2007,04,10,16,40,8.30
2007,04,10,16,41,8.30
2007,04,10,16,42,8.40
2007,04,10,16,43,8.50
2007,04,10,16,44,8.60
2007,04,10,16,45,8.70
2007,04,10,16,46,8.80
2007,04,10,16,47,9.00
2007,04,10,16,48,9.10
2007,04,10,16,49,9.20
2007,04,10,16,50,9.30
2007,04,10,16,51,9.40
2007,04,10,16,52,9.40
2007,04,10,16,53,9.50
2007,04,10,16,54,9.50
2007,04,10,16,55,9.60
2007,04,10,16,56,9.60
2007,04,10,16,57,9.60
2007,04,10,16,58,9.60
2007,04,10,16,59,9.70
2007,04,10,17,00,9.70
2007,04,10,17,01,9.80
2007,04,10,17,02,9.80
2007,04,10,17,03,9.90
2007,04,10,17,04,10.00
2007,04,10,17,05,10.00
2007,04,10,17,06,10.10
2007,04,10,17,07,10.10
2007,04,10,17,08,10.10
2007,04,10,17,09,10.10
2007,04,10,17,10,10.00
2007,04,10,17,11,10.00
2007,04,10,17,12,9.90
2007,04,10,17,13,9.90
2007,04,10,17,14,9.90
2007,04,10,17,15,9.90
2007,04,10,17,16,9.80
2007,04,10,17,17,9.80
2007,04,10,17,18,9.80
2007,04,10,17,19,9.70
2007,04,10,17,20,9.70
2007,04,10,17,21,9.60
2007,04,10,17,22,9.60
2007,04,10,17,23,9.50
2007,04,10,17,24,9.40
2007,04,10,17,25,9.40
2007,04,10,17,26,9.40
2007,04,10,17,27,9.30
2007,04,10,17,28,9.30
2007,04,10,17,29,9.30
2007,04,10,17,30,9.20
2007,04,10,17,31,9.20
2007,04,10,17,32,9.20
2007,04,10,17,33,9.10
2007,04,10,17,34,9.10
2007,04,10,17,35,9.10
2007,04,10,17,36,9.10
2007,04,10,17,37,9.10
2007,04,10,17,38,9.00
2007,04,10,17,39,9.00
2007,04,10,17,40,9.00
2007,04,10,17,41,9.10
2007,04,10,17,42,9.10
2007,04,10,17,43,9.10
2007,04,10,17,44,9.10
2007,04,10,17,45,9.00
2007,04,10,17,46,9.00
2007,04,10,17,47,9.00
2007,04,10,17,48,9.00
2007,04,10,17,49,8.90
2007,04,10,17,50,8.80
2007,04,10,17,51,8.70
2007,04,10,17,52,8.60
2007,04,10,17,53,8.50
2007,04,10,17,54,8.40
2007,04,10,17,55,8.30
2007,04,10,17,56,8.30
2007,04,10,17,57,8.20
2007,04,10,17,58,8.20
2007,04,10,17,59,8.10
2007,04,10,18,00,8.10
2007,04,10,18,01,8.00
2007,04,10,18,02,8.00
2007,04,10,18,03,7.90
2007,04,10,18,04,7.90
2007,04,10,18,05,7.90